When you browse on this site, cookies collect data to enhance your experience and personalize the content and advertising you see.
Visit our Privacy Policy to learn more. By continuing to use the site, you agree to this use of cookies and data.
  • In Lithuania
  • List of Countries
  • For 7 days
  • Water Temperature
  • Satellite Maps
  • Weather Map
  • Weather Widgets
  • user-avatar
    Login

    Hourly Weather Salzburg

    Today, 24 June, Monday

    Time Temperature Precipitation Wind Pressure Humidity
    00:00 +10°C° 0 mm 1 mps 630 mmHg 97%
    01:00 +9°C° 0 mm 1 mps 630 mmHg 97%
    02:00 +9°C° 0 mm 1 mps 630 mmHg 97%
    03:00 +9°C° 0 mm 1 mps 630 mmHg 96%
    04:00 +9°C° 0 mm 1 mps 630 mmHg 96%
    05:00 +10°C° 0 mm 1 mps 631 mmHg 93%
    06:00 +11°C° 0 mm 0 mps 631 mmHg 90%
    07:00 +14°C° 0 mm 1 mps 632 mmHg 86%
    08:00 +16°C° 0 mm 1 mps 633 mmHg 75%
    09:00 +19°C° 0 mm 1 mps 633 mmHg 64%
    10:00 +22°C° 0 mm 1 mps 634 mmHg 53%
    11:00 +22°C° 0 mm 1 mps 634 mmHg 50%
    12:00 +23°C° 0 mm 1 mps 634 mmHg 47%
    13:00 +24°C° 0 mm 1 mps 635 mmHg 44%
    14:00 +24°C° 0 mm 1 mps 634 mmHg 46%
    15:00 +24°C° 0 mm 2 mps 634 mmHg 49%
    16:00 +23°C° 0 mm 2 mps 634 mmHg 51%
    17:00 +22°C° 0.1 mm 1 mps 634 mmHg 63%
    18:00 +20°C° 0.1 mm 1 mps 633 mmHg 74%
    19:00 +18°C° 0.1 mm 1 mps 633 mmHg 86%
    20:00 +16°C° 0 mm 1 mps 633 mmHg 88%
    21:00 +14°C° 0 mm 1 mps 633 mmHg 89%
    22:00 +13°C° 0 mm 1 mps 632 mmHg 91%
    23:00 +13°C° 0 mm 1 mps 632 mmHg 91%

    Tomorrow, 25 June, Tuesday

    Time Temperature Precipitation Wind Pressure Humidity
    00:00 +12°C° 0 mm 2 mps 632 mmHg 91%
    01:00 +12°C° 0 mm 2 mps 632 mmHg 91%
    02:00 +12°C° 0 mm 2 mps 632 mmHg 90%
    03:00 +10°C° 0 mm 2 mps 631 mmHg 88%
    04:00 +10°C° 0 mm 2 mps 631 mmHg 87%
    05:00 +13°C° 0 mm 1 mps 632 mmHg 83%
    06:00 +15°C° 0 mm 1 mps 633 mmHg 79%
    07:00 +18°C° 0 mm 1 mps 634 mmHg 75%
    08:00 +21°C° 0 mm 1 mps 635 mmHg 63%
    09:00 +23°C° 0 mm 1 mps 636 mmHg 51%
    10:00 +24°C° 0 mm 0 mps 637 mmHg 39%
    11:00 +27°C° 0 mm 1 mps 637 mmHg 35%
    12:00 +28°C° 0 mm 1 mps 637 mmHg 32%
    13:00 +29°C° 0 mm 1 mps 637 mmHg 28%
    14:00 +28°C° 0 mm 1 mps 637 mmHg 31%
    15:00 +28°C° 0 mm 2 mps 637 mmHg 35%
    16:00 +27°C° 0 mm 2 mps 637 mmHg 38%
    17:00 +25°C° 0 mm 1 mps 636 mmHg 52%
    18:00 +23°C° 0 mm 1 mps 636 mmHg 65%
    19:00 +21°C° 0 mm 1 mps 635 mmHg 79%
    20:00 +20°C° 0 mm 1 mps 635 mmHg 81%
    21:00 +18°C° 0 mm 1 mps 635 mmHg 83%
    22:00 +15°C° 0 mm 1 mps 635 mmHg 85%
    23:00 +15°C° 0 mm 1 mps 635 mmHg 84%

    Day after tomorrow, 26 June, Wednesday

    Time Temperature Precipitation Wind Pressure Humidity
    00:00 +15°C° 0 mm 1 mps 634 mmHg 84%
    01:00 +14°C° 0 mm 1 mps 634 mmHg 83%
    02:00 +14°C° 0 mm 1 mps 634 mmHg 80%
    03:00 +14°C° 0 mm 1 mps 634 mmHg 78%
    04:00 +13°C° 0 mm 1 mps 634 mmHg 75%
    05:00 +15°C° 0 mm 1 mps 634 mmHg 71%
    06:00 +18°C° 0 mm 1 mps 635 mmHg 68%
    07:00 +18°C° 0 mm 0 mps 636 mmHg 64%
    08:00 +21°C° 0 mm 0 mps 637 mmHg 54%
    09:00 +23°C° 0 mm 0 mps 638 mmHg 45%
    10:00 +28°C° 0 mm 1 mps 638 mmHg 36%
    11:00 +28°C° 0 mm 1 mps 639 mmHg 34%
    12:00 +29°C° 0 mm 1 mps 639 mmHg 32%
    13:00 +29°C° 0 mm 2 mps 639 mmHg 30%
    14:00 +29°C° 0 mm 2 mps 638 mmHg 32%
    15:00 +28°C° 0 mm 2 mps 638 mmHg 35%
    16:00 +28°C° 0 mm 2 mps 638 mmHg 38%
    17:00 +26°C° 0 mm 1 mps 637 mmHg 49%
    18:00 +24°C° 0 mm 1 mps 636 mmHg 61%
    19:00 +22°C° 0 mm 1 mps 635 mmHg 73%
    20:00 +20°C° 0 mm 1 mps 635 mmHg 74%
    21:00 +19°C° 0 mm 1 mps 635 mmHg 76%
    22:00 +16°C° 0 mm 1 mps 635 mmHg 78%
    23:00 +16°C° 0 mm 1 mps 634 mmHg 76%

    27 June, Thursday

    Time Temperature Precipitation Wind Pressure Humidity
    00:00 +15°C° 0 mm 1 mps 634 mmHg 75%
    01:00 +15°C° 0 mm 1 mps 634 mmHg 73%
    02:00 +15°C° 0 mm 1 mps 634 mmHg 72%
    03:00 +14°C° 0 mm 1 mps 634 mmHg 70%
    04:00 +14°C° 0 mm 1 mps 633 mmHg 69%
    05:00 +16°C° 0 mm 1 mps 634 mmHg 66%
    06:00 +19°C° 0 mm 1 mps 634 mmHg 63%
    07:00 +21°C° 0 mm 1 mps 635 mmHg 61%
    08:00 +22°C° 0 mm 1 mps 635 mmHg 55%
    09:00 +24°C° 0 mm 1 mps 636 mmHg 49%
    10:00 +26°C° 0 mm 2 mps 637 mmHg 43%
    11:00 +27°C° 0 mm 2 mps 637 mmHg 42%
    12:00 +27°C° 0 mm 2 mps 636 mmHg 41%
    13:00 +27°C° 0 mm 3 mps 636 mmHg 40%
    14:00 +27°C° 0.2 mm 3 mps 636 mmHg 44%
    15:00 +26°C° 0.2 mm 3 mps 635 mmHg 47%
    16:00 +26°C° 0.2 mm 3 mps 635 mmHg 50%
    17:00 +24°C° 0.8 mm 2 mps 634 mmHg 64%
    18:00 +21°C° 0.8 mm 2 mps 634 mmHg 77%
    19:00 +19°C° 0.8 mm 1 mps 633 mmHg 90%
    20:00 +18°C° 0.2 mm 1 mps 633 mmHg 92%
    21:00 +16°C° 0.2 mm 1 mps 633 mmHg 93%
    22:00 +15°C° 0.2 mm 1 mps 633 mmHg 94%
    23:00 +14°C° 0 mm 1 mps 632 mmHg 94%

    28 June, Friday

    Time Temperature Precipitation Wind Pressure Humidity
    00:00 +14°C° 0 mm 1 mps 632 mmHg 95%
    01:00 +14°C° 0 mm 1 mps 632 mmHg 95%
    02:00 +13°C° 0 mm 1 mps 632 mmHg 95%
    03:00 +13°C° 0 mm 1 mps 632 mmHg 95%
    04:00 +13°C° 0 mm 1 mps 632 mmHg 95%
    05:00 +14°C° 0 mm 1 mps 632 mmHg 94%
    06:00 +15°C° 0 mm 1 mps 632 mmHg 93%
    07:00 +16°C° 0 mm 1 mps 632 mmHg 91%
    08:00 +19°C° 0 mm 1 mps 633 mmHg 80%
    09:00 +20°C° 0 mm 1 mps 633 mmHg 69%
    10:00 +21°C° 0 mm 2 mps 634 mmHg 57%
    11:00 +21°C° 0 mm 2 mps 634 mmHg 51%
    12:00 +23°C° 0 mm 2 mps 634 mmHg 45%
    13:00 +24°C° 0 mm 3 mps 634 mmHg 39%
    14:00 +22°C° 0 mm 3 mps 633 mmHg 40%
    15:00 +22°C° 0 mm 3 mps 633 mmHg 40%
    16:00 +22°C° 0 mm 3 mps 633 mmHg 41%
    17:00 +20°C° 0 mm 2 mps 632 mmHg 51%
    18:00 +18°C° 0 mm 2 mps 632 mmHg 61%
    19:00 +16°C° 0 mm 1 mps 632 mmHg 71%
    20:00 +14°C° 0 mm 1 mps 631 mmHg 75%
    21:00 +12°C° 0 mm 1 mps 631 mmHg 79%
    22:00 +10°C° 0 mm 1 mps 630 mmHg 83%
    23:00 +10°C° 0 mm 1 mps 630 mmHg 81%

    29 June, Saturday

    Time Temperature Precipitation Wind Pressure Humidity
    00:00 +10°C° 0 mm 1 mps 630 mmHg 79%
    01:00 +10°C° 0 mm 1 mps 630 mmHg 78%
    02:00 +9°C° 0 mm 1 mps 630 mmHg 77%
    03:00 +9°C° 0 mm 1 mps 629 mmHg 77%
    04:00 +9°C° 0 mm 1 mps 629 mmHg 76%
    05:00 +11°C° 0 mm 1 mps 630 mmHg 71%
    06:00 +12°C° 0 mm 0 mps 631 mmHg 65%
    07:00 +14°C° 0 mm 0 mps 632 mmHg 60%
    08:00 +16°C° 0 mm 0 mps 632 mmHg 53%
    09:00 +20°C° 0 mm 1 mps 633 mmHg 47%
    10:00 +22°C° 0 mm 1 mps 633 mmHg 41%
    11:00 +23°C° 0 mm 1 mps 633 mmHg 39%
    12:00 +24°C° 0 mm 2 mps 633 mmHg 36%
    13:00 +24°C° 0 mm 2 mps 633 mmHg 34%
    14:00 +24°C° 0 mm 2 mps 633 mmHg 36%
    15:00 +24°C° 0 mm 2 mps 633 mmHg 39%
    16:00 +23°C° 0 mm 2 mps 633 mmHg 41%
    17:00 +21°C° 0 mm 2 mps 632 mmHg 52%
    18:00 +20°C° 0 mm 1 mps 632 mmHg 62%
    19:00 +18°C° 0 mm 1 mps 631 mmHg 73%
    20:00 +15°C° 0 mm 1 mps 631 mmHg 76%
    21:00 +13°C° 0 mm 1 mps 630 mmHg 79%
    22:00 +12°C° 0 mm 1 mps 630 mmHg 82%
    23:00 +11°C° 0 mm 1 mps 630 mmHg 80%
    Show more